Weather reports worldwide

Advertisment
Geilenkirchen, Germany (10500): temperature & dewpoint: 16.02.2019 22:00:00 - 22.02.2019 22:00:00 (CET)Geilenkirchen, Germany (10500): wind speed: 16.02.2019 22:00:00 - 22.02.2019 22:00:00 (CET)Geilenkirchen, Germany (10500): wind direction: 16.02.2019 22:00:00 - 22.02.2019 22:00:00 (CET)Geilenkirchen, Germany (10500): reduced air pressure: 16.02.2019 22:00:00 - 22.02.2019 22:00:00 (CET)Geilenkirchen, Germany (10500): visibility: 16.02.2019 22:00:00 - 22.02.2019 22:00:00 (CET)
Date & Time tt [°C] td [°C] ff [km/h] ff [kn] dd ppp [hPa] vv [km]
22.02.2019 22:00:00 - - - - - - -
22.02.2019 21:00:00 - - - - - - -
22.02.2019 20:00:00 7,2 6,3 4 2 E 1037,7 7
22.02.2019 19:00:00 7,1 5,7 4 2 E 1037,7 7
22.02.2019 18:00:00 9,9 7,5 5 3 N 1037,6 8
22.02.2019 17:00:00 12,2 7,9 8 4 E 1037,2 9
22.02.2019 16:00:00 12,4 8,5 8 4 ENE 1036,8 9
22.02.2019 15:00:00 11,3 8,9 9 5 ENE 1037,0 7
22.02.2019 14:00:00 10,6 9,4 8 4 E 1036,9 5
22.02.2019 13:00:00 9,7 9,7 4 2 ENE 1037,0 3,2
22.02.2019 12:00:00 9,3 9,2 4 2 NNE 1037,0 1,7
22.02.2019 11:00:00 8,9 8,7 5 3 NNE 1036,5 0,8
22.02.2019 10:00:00 8,6 8,5 5 3 NW 1036,0 0,9
22.02.2019 09:00:00 8,4 8,4 8 4 WNW 1035,5 0,7
22.02.2019 08:00:00 8,7 8,7 5 3 WNW 1034,6 0,6
22.02.2019 07:00:00 8,5 8,5 8 4 W 1034,2 0,5
22.02.2019 06:00:00 8,5 8,3 5 3 W 1033,6 0,5
22.02.2019 05:00:00 8,7 8,7 9 5 W 1033,1 2,0
22.02.2019 04:00:00 9,0 8,1 9 5 WNW 1032,9 4,2
22.02.2019 03:00:00 9,7 7,5 5 3 WNW 1032,6 8
22.02.2019 02:00:00 9,7 7,3 5 3 WNW 1032,3 10
22.02.2019 01:00:00 9,9 7,4 8 4 WNW 1032,1 10
22.02.2019 00:00:00 10,3 7,2 4 2 NW 1031,5 10
21.02.2019 23:00:00 10,8 7,3 9 5 W 1031,1 10
21.02.2019 22:00:00 11,5 7,1 11 6 W 1030,4 10
21.02.2019 21:00:00 11,3 7,5 13 7 WSW 1029,8 10
21.02.2019 20:00:00 10,8 7,6 4 2 W 1029,5 10
21.02.2019 19:00:00 11,4 7,4 5 3 W 1029,1 10
21.02.2019 18:00:00 11,8 7,4 11 6 W 1028,1 10
21.02.2019 17:00:00 12,5 6,3 15 8 W 1027,7 10
21.02.2019 16:00:00 13,0 6,5 21 11 W 1027,8 10
21.02.2019 15:00:00 12,6 6,2 24 13 W 1027,6 10
21.02.2019 14:00:00 12,0 7,0 16 9 W - 10
21.02.2019 13:00:00 12,5 7,0 16 9 WSW 1027,9 10
21.02.2019 12:00:00 10,8 6,5 21 11 WSW 1028,1 10
21.02.2019 11:00:00 10,4 5,8 18 10 W 1028,2 10
21.02.2019 10:00:00 9,4 5,4 14 8 SW 1027,2 15
21.02.2019 09:00:00 8,2 4,8 11 6 SW 1027,0 10
21.02.2019 08:00:00 7,7 4,3 5 3 SSW 1026,5 10
21.02.2019 07:00:00 7,1 4,0 8 4 SSW 1026,2 10
21.02.2019 06:00:00 6,8 4,0 8 4 SW 1026,2 10
21.02.2019 05:00:00 7,1 4,2 11 6 SW 1026,5 10
21.02.2019 04:00:00 7,0 3,9 11 6 SW 1026,6 10
21.02.2019 03:00:00 7,4 3,8 8 4 SW 1026,3 10
21.02.2019 02:00:00 8,1 4,0 5 3 SSW 1025,8 10
21.02.2019 01:00:00 6,1 3,3 5 3 S 1025,7 10
21.02.2019 00:00:00 7,6 3,5 8 4 S 1025,7 10
20.02.2019 23:00:00 6,4 2,9 8 4 SW 1025,6 10
20.02.2019 22:00:00 6,9 3,2 7 4 SW 1025,5 30
20.02.2019 21:00:00 7,0 3,2 7 4 SW 1025,2 30
20.02.2019 20:00:00 7,5 3,0 7 4 SSW 1024,7 30
20.02.2019 19:00:00 9,6 3,5 4 2 SW 1024,5 30
20.02.2019 18:00:00 10,6 3,5 9 5 WSW 1023,9 10
20.02.2019 17:00:00 11,1 3,4 14 8 WSW 1023,7 30
20.02.2019 16:00:00 11,7 2,3 18 10 WSW 1023,6 25
20.02.2019 15:00:00 11,1 4,8 14 8 W 1023,9 25
20.02.2019 14:00:00 10,2 4,4 21 11 WSW 1024,0 10
20.02.2019 13:00:00 10,6 4,5 18 10 WSW 1023,9 10
20.02.2019 12:00:00 9,3 4,2 16 9 WSW 1024,0 10
20.02.2019 11:00:00 9,1 3,7 21 11 WSW 1023,8 10
20.02.2019 10:00:00 7,6 3,7 13 7 SW 1023,5 10
20.02.2019 09:00:00 5,8 2,8 8 4 SSW 1023,1 10
20.02.2019 08:00:00 4,8 2,2 5 3 SW 1022,8 10
20.02.2019 07:00:00 5,6 2,4 9 5 SW 1022,2 10
20.02.2019 06:00:00 5,6 2,1 2 1 SSW 1022,4 10
20.02.2019 05:00:00 5,5 2,1 5 3 S 1022,2 10
20.02.2019 04:00:00 5,4 1,8 11 6 SW 1022,0 10
20.02.2019 03:00:00 5,3 1,7 11 6 SSW 1022,2 10
20.02.2019 02:00:00 5,8 1,6 9 5 SSW 1022,5 10
20.02.2019 01:00:00 5,7 1,9 8 4 SW 1022,3 10
20.02.2019 00:00:00 6,0 2,0 8 4 SW 1022,1 10
19.02.2019 23:00:00 6,8 2,1 11 6 SW 1021,9 10
19.02.2019 22:00:00 6,4 2,0 9 5 SW 1022,1 10
19.02.2019 21:00:00 7,0 2,4 9 5 SW 1021,7 10
19.02.2019 20:00:00 7,4 2,3 9 5 SW 1021,6 10
19.02.2019 19:00:00 8,3 2,2 8 4 SW 1021,3 10
19.02.2019 18:00:00 9,1 1,9 15 8 W 1020,9 10
19.02.2019 17:00:00 10,5 1,7 18 10 W 1020,7 10
19.02.2019 16:00:00 10,1 2,7 24 13 W 1020,7 10
19.02.2019 15:00:00 10,2 2,9 22 12 W 1020,5 10
19.02.2019 14:00:00 10,6 2,9 26 14 W 1020,4 10
19.02.2019 13:00:00 10,4 3,1 28 15 W 1020,4 10
19.02.2019 12:00:00 9,5 3,5 24 13 WSW 1020,5 10
19.02.2019 11:00:00 9,0 4,4 22 12 WSW 1020,4 10
19.02.2019 10:00:00 8,1 5,2 16 9 WSW 1020,0 10
19.02.2019 09:00:00 7,3 5,4 18 10 WSW 1019,8 10
19.02.2019 08:00:00 7,0 5,4 15 8 WSW 1018,9 10
19.02.2019 07:00:00 7,0 5,4 13 7 WSW 1018,3 10
19.02.2019 06:00:00 6,9 5,5 11 6 WSW 1018,0 10
19.02.2019 05:00:00 7,1 5,6 8 4 SW 1017,7 7
19.02.2019 04:00:00 7,8 4,8 13 7 W 1017,7 9
19.02.2019 03:00:00 8,3 3,8 11 6 W 1017,5 10
19.02.2019 02:00:00 8,8 2,3 15 8 WSW 1017,0 10
19.02.2019 01:00:00 9,8 2,0 13 7 SW 1016,6 10
19.02.2019 00:00:00 9,7 1,9 11 6 SW 1016,4 10
18.02.2019 23:00:00 9,9 1,9 15 8 SW 1016,5 10
18.02.2019 22:00:00 10,4 1,6 15 8 SW 1016,7 10
18.02.2019 21:00:00 10,7 1,7 9 5 SW 1016,5 10
18.02.2019 20:00:00 11,4 1,4 11 6 SW 1016,2 10
18.02.2019 19:00:00 12,3 1,7 9 5 SSW 1016,1 10
18.02.2019 18:00:00 13,9 2,1 11 6 SSW 1015,6 10
18.02.2019 17:00:00 16,5 1,1 8 4 SW 1015,5 10
18.02.2019 16:00:00 17,0 2,7 8 4 E 1015,7 10
18.02.2019 15:00:00 17,0 3,6 5 3 ENE 1015,9 10
18.02.2019 14:00:00 16,2 3,4 8 4 NE 1016,8 10
18.02.2019 13:00:00 16,9 0,8 4 2 ESE 1017,7 10
18.02.2019 12:00:00 16,1 -0,6 9 5 WSW 1018,4 10
18.02.2019 11:00:00 15,4 0,0 4 2 SW 1018,6 10
18.02.2019 10:00:00 12,2 1,6 2 1 W 1019,1 10
18.02.2019 09:00:00 5,1 0,1 4 2 SSW 1019,4 10
18.02.2019 08:00:00 1,5 -2,1 4 2 ESE 1019,5 10
18.02.2019 07:00:00 0,4 -2,7 5 3 E 1019,8 10
18.02.2019 06:00:00 0,8 -2,6 4 2 ESE 1019,9 10
18.02.2019 05:00:00 3,1 -2,4 4 2 E 1019,8 10
18.02.2019 04:00:00 8,4 -1,0 4 2 ESE 1019,7 10
18.02.2019 03:00:00 6,8 -1,0 5 3 SE 1020,1 10
18.02.2019 02:00:00 2,9 -1,6 4 2 ESE 1020,3 10
18.02.2019 01:00:00 2,5 -1,5 4 2 E 1020,4 10
18.02.2019 00:00:00 4,1 -0,7 2 1 ESE 1020,4 10
17.02.2019 23:00:00 4,7 -0,1 4 2 SE 1020,7 10
17.02.2019 22:00:00 8,0 0,1 2 1 SSE 1020,5 10
17.02.2019 21:00:00 9,2 0,2 2 1 ESE 1020,4 10
17.02.2019 20:00:00 12,9 0,3 5 3 S 1019,9 10
17.02.2019 19:00:00 13,8 0,6 5 3 SSE 1019,9 10
17.02.2019 18:00:00 - - - - - - -
17.02.2019 17:00:00 - - - - - - -
17.02.2019 16:00:00 - - - - - - -
17.02.2019 15:00:00 - - - - - - -
17.02.2019 14:00:00 - - - - - - -
17.02.2019 13:00:00 - - - - - - -
17.02.2019 12:00:00 - - - - - - -
17.02.2019 11:00:00 - - - - - - -
17.02.2019 10:00:00 - - - - - - -
17.02.2019 09:00:00 - - - - - - -
17.02.2019 08:00:00 - - - - - - -
17.02.2019 07:00:00 - - - - - - -
17.02.2019 06:00:00 - - - - - - -
17.02.2019 05:00:00 - - - - - - -
17.02.2019 04:00:00 - - - - - - -
17.02.2019 03:00:00 - - - - - - -
17.02.2019 02:00:00 - - - - - - -
17.02.2019 01:00:00 - - - - - - -
17.02.2019 00:00:00 - - - - - - -
16.02.2019 23:00:00 - - - - - - -
16.02.2019 22:00:00 - - - - - - -

tt = temperature
td = dewpoint
ff = wind speed
dd = wind direction
ppp = reduced air pressure
vv = visibility

Next stations